sat.trackr.live / text

‹ back to catalog

STARLINK-31972

NORAD 59923 · 2024-106B

PAYLOAD ACTIVE UNKNOWN

§ Identity

Operator
Country
US
Launch date
2024-06-01
Launch site
AFETR
Launch vehicle
Mass (kg)
RCS (m²)

Purposes: comms

External: N2YO · Heavens-Above · Gunter

§ Orbital elements

Epoch: 2026-05-25T00:12:36.407808Z

Period
94.27 min
Inclination
42.9988°
Eccentricity
0.0001014
Mean motion
15.27572656 rev/d
Perigee alt
482.4 km
Apogee alt
483.8 km
Semi-major
6,861.2 km
B*
1.2713e-5
RAAN
261.6160°
Arg perigee
274.2758°
Mean anomaly
85.7978°
Rev number
11,224

§ Raw data

STARLINK-319721 59923U 24106B   26145.00875472  .00000088  00000+0  12713-4 0  99952 59923  42.9988 261.6160 0001014 274.2758  85.7978 15.27572656112243

JSON: /api/v1/satellites/59923 · /tle

For live sub-satellite position, see the globe view (requires WebGL).

§ Visibility from observer

Set your observer location to see the next 7 days of passes ≥ 10°. The values pass through the URL so the page stays shareable.

No JS? Fill the form by hand. The geolocation button needs JavaScript.